TimeCDT,TemperatureF,Dew PointF,Humidity,Sea Level PressureIn,VisibilityMPH,Wind Direction,Wind SpeedMPH,Gust SpeedMPH,PrecipitationIn,Events,Conditions,WindDirDegrees,DateUTC
12:53 AM,64.0,57.0,78,29.95,10.0,SSW,4.6,-,N/A,,Clear,210,2012-10-03 05:53:00
1:53 AM,64.0,55.9,75,29.95,10.0,SSW,5.8,-,N/A,,Clear,210,2012-10-03 06:53:00
2:53 AM,63.0,55.9,78,29.96,10.0,SSW,4.6,-,N/A,,Clear,210,2012-10-03 07:53:00
3:53 AM,63.0,55.0,75,29.96,10.0,SSW,5.8,-,N/A,,Clear,200,2012-10-03 08:53:00
4:53 AM,62.1,55.0,78,29.97,10.0,South,5.8,-,N/A,,Mostly Cloudy,190,2012-10-03 09:53:00
5:53 AM,62.1,55.9,80,29.99,10.0,SW,3.5,-,N/A,,Overcast,230,2012-10-03 10:53:00
6:53 AM,62.1,55.0,78,29.99,10.0,SSE,3.5,-,N/A,,Clear,160,2012-10-03 11:53:00
7:53 AM,61.0,55.9,83,30.01,10.0,Calm,Calm,-,N/A,,Partly Cloudy,0,2012-10-03 12:53:00
8:53 AM,64.0,55.0,73,30.03,10.0,Calm,Calm,-,N/A,,Scattered Clouds,0,2012-10-03 13:53:00
9:53 AM,66.9,55.0,66,30.05,10.0,South,3.5,-,N/A,,Clear,180,2012-10-03 14:53:00
10:53 AM,73.0,55.9,55,30.05,10.0,South,8.1,-,N/A,,Clear,170,2012-10-03 15:53:00
11:53 AM,75.0,55.0,50,30.04,10.0,SSE,4.6,-,N/A,,Clear,160,2012-10-03 16:53:00
12:53 PM,77.0,54.0,45,30.03,10.0,South,6.9,-,N/A,,Clear,180,2012-10-03 17:53:00
1:53 PM,78.1,54.0,43,30.01,10.0,Calm,Calm,-,N/A,,Clear,0,2012-10-03 18:53:00
2:53 PM,78.1,55.0,45,29.99,10.0,SSW,5.8,-,N/A,,Scattered Clouds,200,2012-10-03 19:53:00
3:53 PM,78.1,54.0,43,29.99,10.0,SSE,3.5,-,N/A,,Scattered Clouds,150,2012-10-03 20:53:00
5:53 PM,79.0,53.1,40,29.99,10.0,SE,9.2,-,N/A,,Partly Cloudy,140,2012-10-03 22:53:00
6:53 PM,72.0,55.9,57,30.00,10.0,SSE,4.6,-,N/A,,Clear,160,2012-10-03 23:53:00
7:53 PM,69.1,55.9,63,30.02,10.0,SSE,5.8,-,N/A,,Clear,150,2012-10-04 00:53:00
8:53 PM,66.9,55.9,68,30.04,10.0,SSE,4.6,-,N/A,,Clear,150,2012-10-04 01:53:00
9:53 PM,66.9,55.9,68,30.06,10.0,SE,4.6,-,N/A,,Clear,140,2012-10-04 02:53:00
10:53 PM,66.0,57.0,73,30.07,10.0,SE,4.6,-,N/A,,Clear,140,2012-10-04 03:53:00
11:53 PM,66.0,55.9,70,30.08,10.0,SE,4.6,-,N/A,,Clear,140,2012-10-04 04:53:00